Terminal Aerodrome Forecast
Issued by NWS

Home | Current Version | Previous Version | Text Only | Print | Product List | Glossary On
Versions: 1 2 3 4 5 6 7 8 9 10 11 12 13 14 15 16 17 18
000
FTUS44 KLZK 241100
TAFHRO
TAF
KHRO 241139Z 2412/2512 13009KT P6SM OVC150
      TEMPO 2412/2413 3SM TSRA BR OVC040CB
     FM241300 15012G20KT P6SM -SHRA OVC060
      TEMPO 2415/2419 5SM -TSRA BR OVC030CB
     FM241900 19014G24KT 6SM -SHRA VCTS OVC025CB
     FM250300 28008KT P6SM SCT040=

USA.gov is the U.S. government's official web portal to all federal, state and local government web resources and services.